Weather in Krasnoye

Russia / Republic of Adygea     44°52′27″N   39°27′18″E
temp.,
°C
wind,
m/s
gust,
m/s
humid.,
%
clouds,
%
prec.,
mm/h
press.,
hPa
HPBL,
m
15 may, sat
sat1500:00+15wsw23860 0.0 101246
03:00+14w22842 0.0 101220
06:00+14sw11830 0.0 101426
09:00+20w11609 0.0 1014364
12:00+24n22545 0.0 1014712
15:00+25n235527 0.0 1013889
18:00+24ne24732 0.1 1012283
21:00+19ne22901 0.2 101228
16 may, sun
sun1600:00+17ssw119610 1.1 101115
03:00+16wsw119872 2.3 101112
06:00+17w119833 0.9 101044
09:00+21n1289100 0.9 1009421
12:00+25ene3573100 0.0 1007888
15:00+28ene5664100 0.0 10051245
18:00+27ne37760 0.0 1004527
21:00+21ene311925 0.0 1003215
17 may, mon
mon1700:00+19sse119488 0.0 100312
03:00+18sw229590 0.0 100339
06:00+18wsw23945 0.0 100464
09:00+23wsw456399 0.0 1006538
12:00+24sw6953100 0.0 1007830
15:00+24wsw61152100 0.0 1008981
18:00+21nnw3473100 0.0 1009223
21:00+15sw369373 0.6 101198
18 may, tue
tue1800:00+14sw279484 1.6 1011152
03:00+13nnw119561 1.6 101212
06:00+14sse2396100 0.0 1013109
09:00+18sw3782100 0.0 1014520
12:00+23w355594 0.0 10141184
15:00+24w55500 0.0 10141789
18:00+20wsw48650 0.0 1014468
21:00+14sw22870 0.0 101619
19 may, wed
wed1900:00+12ssw22930 0.0 101628
03:00+12sse22925 0.0 101624
06:00+13sse23885 0.0 101661
09:00+21e23665 0.0 1015441
12:00+25ene455632 0.0 10131223
15:00+26ene45570 0.0 10111304
18:00+24ene510710 0.0 1010568
21:00+19e412865 0.0 1010283